[[{"header":{"parameterUnit":"m.s-1","parameterCategory":1,"la1":30.2991,"la2":30.254,"lo1":-89.0895,"lo2":-89.0444,"dy":0.0017,"dx":0.0017,"nx":28,"ny":28,"refTime":"2023-08-04T03:00:00:Z","depth":0,"parameterNumber":2,"parameterNumberName":"U-component_of_WINDS"},"data":[0,0,0,0,0,0,0,0,0,0,0,0,0,0,0,0,0,0,0,0,0,0,0,0,0,0,0,0,0,0,0,0,0,0,0,0,0,0,0,0,0,0,0,0,0,0,0,0,0,0,0,0,0,0,0,0,0,0,5.6008,5.601,0,5.6177,5.6178,5.618,5.6113,5.6109,5.6105,5.6101,5.6275,5.6283,5.6291,0,0,0,0,0,0,0,0,0,0,0,0,0,5.5628,5.5635,5.6008,5.601,5.6012,5.6176,5.6179,5.6181,5.6114,5.6109,5.6104,5.61,5.6272,5.6282,5.6292,0,0,0,0,0,0,0,0,0,0,0,0,0,5.5795,5.5638,5.6008,5.5999,5.5999,5.6176,5.6179,5.6181,5.6115,5.6109,5.6103,5.6097,5.6269,5.6281,5.6293,5.6489,0,0,5.6331,5.6337,0,0,0,0,0,0,0,0,5.5785,5.5809,5.5998,5.6,5.6001,5.6118,5.6108,5.6285,5.6116,5.6071,5.6101,5.6094,5.6227,5.6243,5.6288,5.6497,5.6504,5.6332,5.634,5.6345,5.6349,0,0,0,0,0,0,0,5.5774,5.5801,5.6075,5.6001,5.6003,5.5986,5.6003,5.6141,5.6181,5.6075,5.607,5.6091,5.6227,5.6276,5.6291,5.6507,5.6332,5.6343,5.6351,5.6356,5.6882,5.6889,0,0,0,0,0,0,5.5762,5.5792,5.6069,5.608,5.5876,5.5998,5.6017,5.6086,5.6179,5.6187,5.6096,5.6087,5.6257,5.6277,5.6297,5.653,5.6345,5.6357,5.6364,5.6876,5.6884,5.6891,0,0,0,0,0,0,5.5754,5.5787,5.6063,5.5935,5.5968,5.601,5.6089,5.6093,5.6141,5.6195,5.6201,5.6138,5.6253,5.6279,5.6441,5.6535,5.6363,5.6374,5.6868,5.6878,5.6887,5.6999,0,0,0,0,0,0,5.5743,5.5785,5.586,5.5937,5.5976,5.6204,5.6095,5.61,5.6163,5.6153,5.6236,5.6245,5.6251,5.6423,5.6453,5.6549,5.6384,5.686,5.6873,5.6884,5.6987,5.7011,5.7032,0,0,0,0,0,5.573,5.5885,5.5864,5.5898,5.607,5.621,5.6232,5.6236,5.6171,5.6246,5.628,5.6242,5.652,5.644,5.6474,5.6575,5.6854,5.6869,5.6883,5.6976,5.7006,5.7031,0,0,0,0,0,0,5.5819,5.5895,5.5873,5.6058,5.6128,5.6198,5.6293,5.6267,5.6358,5.6345,5.6346,5.6365,5.6532,5.6569,5.6479,5.6767,5.6677,5.6699,5.6736,5.6765,5.6787,5.6774,5.6394,0,0,0,0,0,5.586,5.5967,5.6028,5.6185,5.6222,5.6252,5.6313,5.6309,5.6382,5.6412,5.6458,5.653,5.6633,5.6701,5.68,5.6992,5.7008,5.7078,5.71,5.7119,5.7137,5.7239,5.727,5.6939,5.6939,5.6939,0,0,5.5947,5.6001,5.6069,5.6205,5.6259,5.6369,5.6277,5.6398,5.648,5.643,5.6584,5.6621,5.6702,5.6879,5.6959,5.6915,5.7232,5.7137,5.7152,5.716,5.7257,5.7289,5.7317,5.6949,5.6947,5.6946,0,0,5.6159,5.6213,5.6348,5.6404,5.6486,5.6504,5.6537,5.6612,5.6633,5.6788,5.6753,5.685,5.7029,5.7086,5.7139,5.7372,5.734,5.7404,5.7522,5.7621,5.7647,5.767,5.7751,5.778,5.7423,5.7424,5.7424,0,5.6256,5.6421,5.6421,5.6545,5.6604,5.6564,5.67,5.6754,5.6865,5.6907,5.6856,5.7078,5.713,5.7318,5.7375,5.742,5.7456,5.7394,5.7643,5.7666,5.7688,5.7765,5.7795,5.7431,5.743,5.7429,5.7428,0,5.6534,5.6649,5.6748,5.6855,5.6926,5.7056,5.7075,5.7147,5.7137,5.7161,5.7318,5.7378,5.7487,5.7532,5.7524,5.7719,5.7689,5.7642,5.755,5.7726,5.7798,5.7828,5.7441,5.7438,5.7436,5.7434,0,0,5.6808,5.6912,5.6948,5.6995,5.7082,5.717,5.7297,5.7403,5.7463,5.7541,5.7646,5.7797,5.7753,5.7813,5.7811,5.7899,5.8076,5.784,5.7841,5.7879,5.8292,5.8326,5.836,5.8056,5.8061,5.8066,5.8284,0,5.7026,5.7248,5.7251,5.7455,5.7559,5.7522,5.7632,5.7697,5.7722,5.7814,5.7842,5.7949,5.7883,5.7919,5.8004,5.8037,5.8159,5.8021,5.8152,5.8157,5.8131,5.8398,5.8435,5.8638,5.8313,5.8317,5.8321,0,5.731,5.7395,5.7608,5.7678,5.7722,5.7821,5.7916,5.8005,5.8078,5.809,5.8156,5.8141,5.8269,5.8175,5.8351,5.8257,5.8311,5.8336,5.8343,5.8354,5.8248,5.8414,5.8703,5.8733,5.8366,5.8362,5.8359,0,5.7485,5.7653,5.7802,5.7843,5.7929,5.7999,5.8038,5.8104,5.8167,5.825,5.829,5.8388,5.8442,5.8518,5.8529,5.846,5.8705,5.8612,5.8717,5.8717,5.8769,5.8765,5.9069,5.8808,5.8807,5.8807,5.8806,0,5.7727,5.7859,5.7881,5.7973,5.8119,5.8121,5.8265,5.8298,5.8358,5.8454,5.8428,5.8519,5.8529,5.8623,5.8633,5.8776,5.8801,5.8813,5.8814,5.8814,5.8812,5.8848,5.8834,5.8815,5.8813,5.8811,5.881,0,5.7947,5.7968,5.8127,5.8194,5.8214,5.8319,5.8376,5.8463,5.8485,5.8607,5.8636,5.8671,5.878,5.8798,5.8928,5.8934,5.9103,5.9091,5.9079,5.9076,5.9179,5.9168,5.9515,5.9559,5.9271,5.9274,5.9276,0,5.8099,5.8199,5.8276,5.8339,5.8381,5.8482,5.8545,5.8551,5.8617,5.8706,5.8781,5.8887,5.8972,5.9148,5.9184,5.9282,5.927,5.9385,5.9285,5.9281,5.9269,5.9262,5.9271,5.9404,5.9407,5.9409,5.9411,0,5.8365,5.837,5.8461,5.8556,5.8631,5.8707,5.8778,5.883,5.8845,5.8921,5.9031,5.9097,5.9227,5.9332,5.9429,5.9468,5.9442,5.9443,5.9471,5.9472,5.946,5.9465,5.9129,5.9434,5.9432,5.943,5.9429,5.9428,5.8555,5.864,5.8708,5.881,5.8863,5.893,5.9013,5.9045,5.9137,5.9243,5.9241,5.9362,5.9429,5.9556,5.9602,5.9696,5.9659,5.9702,5.9712,5.9722,5.973,5.9446,5.9714,5.9713,5.9713,5.9712,5.9712,0,5.8817,5.8858,5.8952,5.9051,5.9131,5.9099,5.9175,5.9244,5.935,5.9415,5.9499,5.9624,5.9725,5.9769,5.9868,5.9935,5.9925,5.996,5.9954,5.9963,5.9759,5.9723,5.9966,5.9966,5.9966,5.9966,5.9966,5.9966,5.8963,5.9106,5.9119,5.9287,5.9327,5.9444,5.949,5.9551,5.9602,5.9743,5.9827,5.9855,5.9911,6.0013,6.0104,6.0114,6.0151,6.0191,6.0196,6.0004,5.9978,5.9954,5.9919,6.02,6.02,6.0392,6.0394,6.0395]},{"header":{"parameterUnit":"m.s-1","parameterCategory":1,"la1":30.2991,"la2":30.254,"lo1":-89.0895,"lo2":-89.0444,"dy":0.0017,"dx":0.0017,"nx":28,"ny":28,"refTime":"2023-08-04T03:00:00:Z","depth":0,"parameterNumber":3,"parameterNumberName":"V-component_of_WINDS"},"data":[0,0,0,0,0,0,0,0,0,0,0,0,0,0,0,0,0,0,0,0,0,0,0,0,0,0,0,0,0,0,0,0,0,0,0,0,0,0,0,0,0,0,0,0,0,0,0,0,0,0,0,0,0,0,0,0,0,0,1.7849,1.785,0,1.793,1.7931,1.7932,1.7917,1.7916,1.7914,1.7913,1.7996,1.7999,1.8003,0,0,0,0,0,0,0,0,0,0,0,0,0,1.7681,1.7685,1.7849,1.785,1.7851,1.793,1.7931,1.7932,1.7917,1.7916,1.7914,1.7912,1.7994,1.7999,1.8003,0,0,0,0,0,0,0,0,0,0,0,0,0,1.7757,1.7686,1.7849,1.7853,1.7855,1.793,1.7931,1.7932,1.7918,1.7916,1.7913,1.7911,1.7993,1.7998,1.8003,1.8079,0,0,1.802,1.8022,0,0,0,0,0,0,0,0,1.7753,1.7764,1.7852,1.7853,1.7855,1.7911,1.7902,1.7982,1.7918,1.7894,1.7913,1.791,1.7969,1.7976,1.7996,1.8083,1.8087,1.802,1.8023,1.8026,1.8027,0,0,0,0,0,0,0,1.7748,1.776,1.7881,1.7853,1.7855,1.7851,1.7859,1.7917,1.7943,1.7896,1.7895,1.7905,1.797,1.7991,1.7998,1.8088,1.802,1.8025,1.8028,1.803,1.8239,1.8242,0,0,0,0,0,0,1.7741,1.7756,1.7879,1.7884,1.7798,1.7856,1.7865,1.7895,1.7942,1.7947,1.7906,1.7904,1.7983,1.7992,1.8001,1.8092,1.8026,1.8031,1.8034,1.8237,1.824,1.8242,0,0,0,0,0,0,1.7738,1.7752,1.7875,1.782,1.7835,1.7861,1.7895,1.7898,1.792,1.795,1.7954,1.7924,1.7982,1.7993,1.806,1.8095,1.8033,1.8038,1.8234,1.8238,1.8241,1.8276,0,0,0,0,0,0,1.7733,1.7751,1.7781,1.782,1.7838,1.7933,1.7897,1.7901,1.7929,1.7926,1.7967,1.7972,1.7981,1.8052,1.8065,1.8101,1.8042,1.8231,1.8236,1.824,1.8272,1.828,1.8287,0,0,0,0,0,1.7727,1.7788,1.7782,1.7797,1.7875,1.7935,1.7945,1.7954,1.7932,1.7961,1.798,1.7971,1.8089,1.8059,1.8073,1.8112,1.8229,1.8235,1.824,1.8268,1.8278,1.8287,0,0,0,0,0,0,1.7752,1.7793,1.7788,1.7863,1.7896,1.7933,1.7971,1.7965,1.8005,1.8001,1.801,1.8019,1.8086,1.8105,1.8071,1.8187,1.8156,1.8164,1.8172,1.8182,1.819,1.8184,1.8046,0,0,0,0,0,1.7766,1.7812,1.7845,1.7908,1.7925,1.7945,1.7971,1.7975,1.8009,1.8023,1.8047,1.8081,1.8125,1.8155,1.8197,1.8274,1.8282,1.8307,1.8315,1.8321,1.8329,1.8369,1.8381,1.826,1.826,1.826,0,0,1.7796,1.7824,1.7853,1.7914,1.794,1.7986,1.7957,1.8007,1.8042,1.8031,1.8095,1.8113,1.8151,1.8223,1.8255,1.8241,1.8364,1.8328,1.8333,1.8337,1.8376,1.8388,1.8398,1.8264,1.8263,1.8262,0,0,1.7875,1.7901,1.7956,1.7982,1.8021,1.8034,1.8047,1.8084,1.8096,1.816,1.8153,1.8193,1.827,1.8297,1.8321,1.8408,1.84,1.8421,1.8462,1.8502,1.8512,1.852,1.8551,1.8562,1.8428,1.8428,1.8428,0,1.7907,1.7977,1.7985,1.8036,1.8063,1.8054,1.8109,1.8134,1.8186,1.8204,1.8187,1.8282,1.8307,1.8384,1.8405,1.8424,1.8439,1.8417,1.851,1.8518,1.8526,1.8556,1.8567,1.8431,1.843,1.843,1.843,0,1.8015,1.8064,1.8103,1.8152,1.8183,1.8236,1.8251,1.8281,1.8282,1.8296,1.8361,1.839,1.8438,1.8456,1.8458,1.8533,1.8523,1.8507,1.8477,1.854,1.8568,1.8579,1.8434,1.8433,1.8432,1.8432,0,0,1.8113,1.8165,1.8179,1.8201,1.8243,1.828,1.8332,1.8378,1.8404,1.8439,1.8483,1.8547,1.8532,1.8559,1.8563,1.8598,1.8664,1.8578,1.8579,1.8593,1.8748,1.876,1.8773,1.8658,1.8661,1.8662,1.8745,0,1.8196,1.8288,1.8295,1.8378,1.8422,1.8414,1.8459,1.8489,1.8503,1.8542,1.8558,1.8603,1.8581,1.8597,1.8631,1.8649,1.8695,1.8643,1.8699,1.8701,1.869,1.8787,1.88,1.8877,1.8756,1.8758,1.8759,0,1.8305,1.8343,1.843,1.8464,1.8483,1.8524,1.8566,1.8604,1.8637,1.8645,1.8674,1.8673,1.8725,1.8691,1.8764,1.8728,1.8751,1.8763,1.8766,1.8772,1.8734,1.8796,1.8902,1.8913,1.8776,1.8775,1.8774,0,1.8368,1.844,1.8502,1.852,1.8562,1.859,1.8609,1.864,1.8667,1.8704,1.8722,1.8764,1.8787,1.882,1.883,1.8804,1.8901,1.8869,1.8909,1.8909,1.8931,1.8929,1.9042,1.8945,1.8945,1.8945,1.8944,0,1.846,1.8513,1.853,1.8568,1.8627,1.8634,1.8693,1.871,1.8737,1.8777,1.8772,1.881,1.8821,1.886,1.8868,1.8926,1.8937,1.8944,1.8946,1.8945,1.8944,1.8961,1.8956,1.8948,1.8947,1.8946,1.8946,0,1.854,1.8554,1.862,1.8654,1.8663,1.8705,1.8734,1.877,1.8782,1.8833,1.8845,1.8865,1.8911,1.8924,1.8979,1.8984,1.9053,1.9049,1.9042,1.9042,1.9082,1.9078,1.9209,1.9226,1.9118,1.9119,1.912,0,1.8598,1.8639,1.8677,1.8703,1.8723,1.8766,1.8793,1.8801,1.8829,1.887,1.8901,1.8946,1.8983,1.9056,1.9076,1.9117,1.9115,1.9158,1.9121,1.9119,1.9116,1.9113,1.9117,1.9165,1.9166,1.9167,1.9168,0,1.87,1.8704,1.8744,1.8785,1.8818,1.8851,1.8883,1.8905,1.8917,1.8949,1.8996,1.9024,1.908,1.9125,1.9167,1.9185,1.9179,1.9179,1.9191,1.9191,1.9185,1.9188,1.9061,1.9176,1.9176,1.9175,1.9175,1.9174,1.8771,1.8807,1.8838,1.8882,1.8907,1.8936,1.8971,1.8987,1.9027,1.9073,1.9075,1.9125,1.9156,1.9212,1.9232,1.9272,1.9259,1.9276,1.928,1.9284,1.9288,1.9178,1.9279,1.9279,1.9279,1.9279,1.9279,0,1.8872,1.8892,1.8932,1.8976,1.901,1.9,1.9034,1.9064,1.9108,1.9138,1.9174,1.9227,1.927,1.9291,1.9334,1.9361,1.9359,1.9372,1.937,1.9375,1.9297,1.9283,1.9373,1.9373,1.9373,1.9373,1.9373,1.9373,1.8929,1.8988,1.8996,1.9067,1.9086,1.9136,1.9156,1.9183,1.9206,1.9266,1.9301,1.9315,1.9341,1.9385,1.9423,1.9429,1.9444,1.9459,1.9463,1.939,1.938,1.9371,1.9358,1.9462,1.9463,1.9537,1.9538,1.9538]}]]